Weather History for KPOU - February, 2014

Change the Weather History Date:

Tuesday, February 18, 2014

  Actual Average Record
Temperature  
Mean Temperature 23 °F 29 °F  
Max Temperature 33 °F 40 °F 65 °F (1981)
Min Temperature 12 °F 18 °F -14 °F (1979)
Degree Days  
Heating Degree Days 42 36  
Month to date heating degree days 783 673  
Since 1 July heating degree days 4317 4225  
Cooling Degree Days 0 0  
Month to date cooling degree days 0 0  
Year to date cooling degree days 0 0  
Moisture  
Dew Point 17 °F    
Average Humidity 76    
Maximum Humidity 92    
Minimum Humidity 40    
Precipitation  
Precipitation 0.07 in 0.09 in 0.80 in (1986)
Month to date precipitation 2.22 1.67  
Year to date precipitation 3.72 4.75  
Sea Level Pressure  
Sea Level Pressure 30.07 in    
Wind  
Wind Speed 3 mph (NNW)    
Max Wind Speed 8 mph    
Max Gust Speed -    
Visibility 6 miles    
Events Fog , Snow    
T = Trace of Precipitation, MM = Missing Value Source: NWS Daily Summary

Daily Weather History Graph

Daily Weather History Graph

Search for Another Location

Airport or City:

Trip Planner

Search our weather history database for the weather conditions in past years. The results will help you decide how hot, cold, wet, or windy it might be!

Date:

Astronomy

Feb. 18, 2014 Rise Set
Actual Time 6:46 AM EST 5:32 PM EST
Civil Twilight 6:18 AM EST 6:01 PM EST
Nautical Twilight 5:46 AM EST 6:33 PM EST
Astronomical Twilight 5:13 AM EST 7:05 PM EST
Moon 9:27 PM EST (2/18) 8:14 AM EST (2/18)
Length of Visible Light 11h 42m
Length of Day
10h 46m
Waning Gibbous, 87% of the Moon is Illuminated
Feb 18
Waning Gibbous
Feb 22
Last Quarter
Mar 1
New
Mar 8
First Quarter
Mar 16
Full

Hourly Weather History & Observations

Time (EST) Temp. Windchill Dew Point Humidity Pressure Visibility Wind Dir Wind Speed Gust Speed Precip Events Conditions
12:53 AM 14.0 °F - 5.0 °F 67% 30.30 in 10.0 mi Calm Calm - N/A   Clear
1:53 AM 16.0 °F 8.8 °F 5.0 °F 62% 30.25 in 10.0 mi East 4.6 mph - N/A   Scattered Clouds
2:53 AM 21.0 °F - 1.9 °F 44% 30.26 in 10.0 mi North - - N/A   Mostly Cloudy
3:53 AM 23.0 °F 18.4 °F 1.9 °F 40% 30.23 in 10.0 mi SSE 3.5 mph - N/A   Partly Cloudy
4:53 AM 23.0 °F - 3.9 °F 44% 30.19 in 10.0 mi Calm Calm - N/A   Overcast
5:53 AM 23.0 °F - 7.0 °F 50% 30.19 in 10.0 mi Calm Calm - N/A   Overcast
6:53 AM 21.9 °F 17.2 °F 12.9 °F 68% 30.17 in 10.0 mi NNE 3.5 mph - 0.00 in   Overcast
7:01 AM 21.9 °F 17.2 °F 12.9 °F 68% 30.16 in 6.0 mi NNE 3.5 mph - 0.00 in Snow Light Snow
7:20 AM 23.0 °F 18.4 °F 12.9 °F 65% 30.16 in 3.0 mi NE 3.5 mph - 0.00 in Snow Light Snow
7:51 AM 21.2 °F 16.4 °F 14.0 °F 74% 30.14 in 3.0 mi North 3.5 mph - 0.00 in Snow Light Snow
7:53 AM 21.9 °F 15.7 °F 14.0 °F 72% 30.15 in 3.0 mi NNW 4.6 mph - 0.00 in Snow Light Snow
8:10 AM 21.9 °F 15.7 °F 15.1 °F 75% 30.14 in 2.5 mi NNW 4.6 mph - 0.00 in Snow Light Snow
8:19 AM 21.9 °F 17.2 °F 15.1 °F 75% 30.14 in 1.8 mi North 3.5 mph - 0.00 in Snow Light Snow
8:53 AM 23.0 °F 18.4 °F 17.1 °F 78% 30.12 in 1.0 mi North 3.5 mph - 0.00 in Snow Light Snow
9:22 AM 23.0 °F 18.4 °F 18.0 °F 81% 30.09 in 2.0 mi North 3.5 mph - 0.01 in Snow Light Snow
9:53 AM 25.0 °F 20.7 °F 19.0 °F 78% 30.07 in 6.0 mi North 3.5 mph - 0.01 in   Haze
10:15 AM 25.0 °F 20.7 °F 19.9 °F 81% 30.06 in 1.8 mi NNW 3.5 mph - 0.00 in Snow Light Snow
10:53 AM 24.1 °F 19.7 °F 19.0 °F 81% 30.04 in 1.2 mi WNW 3.5 mph - 0.00 in Snow Light Snow
11:20 AM 24.1 °F 19.7 °F 19.9 °F 84% 30.02 in 0.8 mi NNW 3.5 mph - 0.00 in Snow Light Snow
11:38 AM 24.1 °F 19.7 °F 21.0 °F 88% 30.01 in 0.2 mi NNW 3.5 mph - 0.01 in Fog , Snow Snow
11:53 AM 25.0 °F 20.7 °F 21.0 °F 85% 30.00 in 0.2 mi NNW 3.5 mph - 0.03 in Fog , Snow Snow
12:03 PM 25.0 °F 20.7 °F 21.0 °F 85% 30.00 in 0.5 mi NW 3.5 mph - 0.00 in Fog , Snow Snow
12:10 PM 24.1 °F 19.7 °F 21.0 °F 88% 30.00 in 0.5 mi NW 3.5 mph - 0.01 in Fog , Snow Snow
12:53 PM 26.1 °F 19.4 °F 21.9 °F 84% 29.96 in 0.5 mi North 5.8 mph - 0.03 in Fog , Snow Snow
1:06 PM 27.0 °F 23.0 °F 23.0 °F 85% 29.96 in 0.8 mi NNE 3.5 mph - 0.00 in Snow Light Snow
1:13 PM 28.0 °F 22.8 °F 24.1 °F 85% 29.95 in 3.0 mi North 4.6 mph - 0.00 in Snow Light Snow
1:43 PM 28.9 °F 25.2 °F 24.1 °F 82% 29.95 in 6.0 mi NW 3.5 mph - 0.00 in   Haze
1:53 PM 30.0 °F 26.5 °F 24.1 °F 79% 29.95 in 10.0 mi NNW 3.5 mph - 0.00 in   Overcast
2:34 PM 30.0 °F 26.5 °F 25.0 °F 82% 29.94 in 10.0 mi NE 3.5 mph - N/A   Overcast
2:53 PM 32.0 °F - 27.0 °F 82% 29.94 in 10.0 mi Calm Calm - N/A   Overcast
3:08 PM 30.9 °F - 25.0 °F 79% 29.96 in 10.0 mi Calm Calm - N/A   Overcast
3:53 PM 33.1 °F 30.0 °F 27.0 °F 78% 29.96 in 10.0 mi Variable 3.5 mph - N/A   Mostly Cloudy
4:53 PM 30.9 °F - 25.0 °F 79% 29.97 in 10.0 mi Calm Calm - N/A   Partly Cloudy
5:53 PM 27.0 °F 21.6 °F 24.1 °F 89% 30.00 in 9.0 mi WSW 4.6 mph - N/A   Clear
6:53 PM 28.9 °F 21.1 °F 23.0 °F 78% 30.02 in 10.0 mi WSW 8.1 mph - N/A   Clear
7:53 PM 30.0 °F 23.2 °F 21.9 °F 72% 30.04 in 10.0 mi SW 6.9 mph - N/A   Clear
8:53 PM 30.9 °F - 21.9 °F 69% 30.06 in 10.0 mi Calm Calm - N/A   Clear
9:53 PM 23.0 °F 14.7 °F 19.0 °F 85% 30.06 in 8.0 mi WSW 6.9 mph - N/A   Clear
10:53 PM 16.0 °F - 14.0 °F 92% 30.06 in 5.0 mi Calm Calm - N/A   Clear
11:53 PM 12.0 °F - 9.0 °F 88% 30.06 in 4.0 mi Calm Calm - N/A   Clear